Weather History for KLVM - December, 2013

Change the Weather History Date:

Tuesday, December 3, 2013

  Actual Average Record
Temperature  
Mean Temperature 5 °F 28 °F  
Max Temperature 9 °F 37 °F 57 °F (1987)
Min Temperature 0 °F 19 °F -8 °F (1972)
Degree Days  
Heating Degree Days 60 38  
Month to date heating degree days 114 112  
Since 1 July heating degree days 1821 2071  
Cooling Degree Days 0 0  
Month to date cooling degree days 0  
Year to date cooling degree days 230  
Moisture  
Dew Point -2 °F    
Average Humidity 76    
Maximum Humidity 83    
Minimum Humidity 68    
Precipitation  
Precipitation T in 0.02 in 0.48 in (1998)
Month to date precipitation 0.27 0.06  
Year to date precipitation 11.57 14.35  
Sea Level Pressure  
Sea Level Pressure 30.02 in    
Wind  
Wind Speed 15 mph (NNW)    
Max Wind Speed 33 mph    
Max Gust Speed 40 mph    
Visibility 4 miles    
Events Snow    
T = Trace of Precipitation, MM = Missing Value Source: NWS Daily Summary

Daily Weather History Graph

Daily Weather History Graph

Search for Another Location

Airport or City:

Trip Planner

Search our weather history database for the weather conditions in past years. The results will help you decide how hot, cold, wet, or windy it might be!

Date:

Astronomy

Dec. 03, 2013 Rise Set
Actual Time 7:44 AM MST 4:38 PM MST
Civil Twilight 7:10 AM MST 5:12 PM MST
Nautical Twilight 6:33 AM MST 5:49 PM MST
Astronomical Twilight 5:57 AM MST 6:25 PM MST
Moon 8:16 AM MST (12/3) 5:47 PM MST (12/3)
Length of Visible Light 10h 01m
Length of Day
8h 53m
New Moon, 1% of the Moon is Illuminated
Dec 3
New Moon
Dec 9
First Quarter
Dec 17
Full
Dec 25
Last Quarter
Jan 1
New

Hourly Weather History & Observations

Time (MST) Temp. Windchill Dew Point Humidity Pressure Visibility Wind Dir Wind Speed Gust Speed Precip Events Conditions
12:01 AM 9.0 °F -14.6 °F 1.9 °F 73% 29.77 in 0.8 mi NNW 33.4 mph 40.3 mph 0.00 in Snow Light Snow
12:14 AM 9.0 °F -13.0 °F 1.9 °F 73% 29.77 in 1.0 mi NNW 27.6 mph 35.7 mph 0.00 in Snow Light Snow
12:21 AM 9.0 °F -13.0 °F 1.9 °F 73% 29.78 in 1.5 mi NNW 27.6 mph 33.4 mph 0.00 in Snow Light Snow
12:30 AM 9.0 °F -12.2 °F 1.9 °F 73% 29.78 in 2.0 mi NNW 25.3 mph 33.4 mph 0.00 in Snow Light Snow
12:43 AM 9.0 °F -10.5 °F 1.9 °F 73% 29.79 in 6.0 mi NW 20.7 mph 26.5 mph 0.00 in Snow Light Snow
12:53 AM 9.0 °F -8.5 °F 1.0 °F 70% 29.92 in 10.0 mi NW 16.1 mph 25.3 mph 0.00 in   Overcast
1:53 AM 8.1 °F -11.2 °F -0.0 °F 70% 29.98 in 2.0 mi NNW 19.6 mph 27.6 mph 0.00 in Snow Light Snow
2:06 AM 7.0 °F -12.1 °F -0.0 °F 73% 29.83 in 2.0 mi NW 18.4 mph - 0.00 in Snow Light Snow
2:21 AM 7.0 °F -9.8 °F 1.0 °F 77% 29.85 in 1.5 mi NNW 13.8 mph - 0.00 in Snow Light Snow
2:39 AM 7.0 °F -13.1 °F -0.0 °F 73% 29.85 in 2.0 mi NW 20.7 mph 24.2 mph 0.00 in Snow Light Snow
2:53 AM 7.0 °F -12.6 °F -0.0 °F 73% 30.01 in 2.0 mi NW 19.6 mph - 0.00 in Snow Light Snow
3:06 AM 7.0 °F -12.6 °F -0.0 °F 73% 29.86 in 1.5 mi NW 19.6 mph 28.8 mph 0.00 in Snow Light Snow
3:22 AM 7.0 °F -12.1 °F -0.9 °F 70% 29.86 in 2.0 mi NW 18.4 mph 28.8 mph 0.00 in Snow Light Snow
3:31 AM 7.0 °F -12.1 °F -0.9 °F 70% 29.85 in 4.0 mi NNW 18.4 mph - 0.00 in Snow Light Snow
3:45 AM 6.1 °F -13.8 °F -0.9 °F 73% 29.86 in 2.5 mi NNW 19.6 mph - 0.00 in Snow Light Snow
3:53 AM 6.1 °F -12.2 °F -0.9 °F 73% 30.03 in 5.0 mi NW 16.1 mph - 0.00 in Snow Light Snow
4:41 AM 7.0 °F -13.1 °F -2.0 °F 67% 29.85 in 5.0 mi NNW 20.7 mph 26.5 mph 0.00 in Snow Light Snow
4:50 AM 6.8 °F -14.7 °F -2.2 °F 67% 29.85 in 1.8 mi NNW 24.2 mph 29.9 mph 0.00 in Snow Light Snow
4:53 AM 6.1 °F -15.2 °F -2.0 °F 69% 30.05 in 1.5 mi NNW 23.0 mph 29.9 mph 0.00 in Snow Light Snow
5:04 AM 6.1 °F -12.8 °F -2.0 °F 69% 29.86 in 2.0 mi NNW 17.3 mph - 0.00 in Snow Light Snow
5:38 AM 6.1 °F -12.8 °F -2.0 °F 69% 29.87 in 3.0 mi NNW 17.3 mph - 0.00 in Snow Light Snow
5:53 AM 6.1 °F -14.8 °F -0.9 °F 73% 30.07 in 2.0 mi NNW 21.9 mph - 0.00 in Snow Light Snow
6:43 AM 5.0 °F -15.7 °F -0.9 °F 76% 29.89 in 1.5 mi NNW 20.7 mph - 0.00 in Snow Light Snow
6:53 AM 5.0 °F -13.0 °F -0.9 °F 76% 30.10 in 1.5 mi NNW 15.0 mph - 0.00 in Snow Light Snow
7:31 AM 5.0 °F -14.7 °F -0.9 °F 76% 29.91 in 2.0 mi NNW 18.4 mph - 0.00 in Snow Light Snow
7:53 AM 5.0 °F -13.6 °F -0.9 °F 76% 30.14 in 2.5 mi NNW 16.1 mph - 0.00 in Snow Light Snow
8:04 AM 5.0 °F -13.6 °F -0.9 °F 76% 29.92 in 1.2 mi NNW 16.1 mph - 0.00 in Snow Light Snow
8:50 AM 5.0 °F -13.6 °F -0.4 °F 78% 29.94 in 2.0 mi NW 16.1 mph - 0.00 in Snow Light Snow
8:53 AM 5.0 °F -13.6 °F -0.9 °F 76% 30.18 in 2.0 mi NNW 16.1 mph - 0.00 in Snow Light Snow
9:05 AM 5.0 °F -13.6 °F -0.9 °F 76% 29.95 in 1.5 mi NNW 16.1 mph - 0.00 in Snow Light Snow
9:37 AM 5.0 °F -14.2 °F -0.9 °F 76% 29.96 in 2.0 mi NNW 17.3 mph - 0.00 in Snow Light Snow
9:53 AM 5.0 °F -14.7 °F -2.0 °F 73% 30.20 in 2.5 mi NNW 18.4 mph 27.6 mph 0.00 in Snow Light Snow
10:21 AM 5.0 °F -14.7 °F -2.0 °F 73% 29.97 in 3.0 mi NNW 18.4 mph - 0.00 in Snow Light Snow
10:29 AM 5.0 °F -14.2 °F -2.0 °F 73% 29.97 in 2.5 mi NNW 17.3 mph - 0.00 in Snow Light Snow
10:53 AM 5.0 °F -14.7 °F -2.0 °F 73% 30.22 in 2.0 mi NNW 18.4 mph - 0.00 in Snow Light Snow
11:35 AM 5.0 °F -15.7 °F -2.9 °F 70% 29.97 in 2.5 mi NNW 20.7 mph - 0.00 in Snow Light Snow
11:45 AM 5.0 °F -16.2 °F -2.9 °F 70% 29.97 in 4.0 mi NNW 21.9 mph - 0.00 in Snow Light Snow
11:53 AM 5.0 °F -14.2 °F -2.9 °F 70% 30.22 in 5.0 mi NNW 17.3 mph - 0.00 in   Haze
12:09 PM 5.0 °F -15.7 °F -2.0 °F 73% 29.97 in 2.5 mi NNW 20.7 mph - 0.00 in Snow Light Snow
12:15 PM 5.0 °F -15.7 °F -2.0 °F 73% 29.97 in 1.8 mi NNW 20.7 mph - 0.00 in Snow Light Snow
12:53 PM 6.1 °F -12.2 °F -2.0 °F 69% 30.21 in 1.8 mi NNW 16.1 mph - 0.00 in Snow Light Snow
1:06 PM 5.0 °F -13.0 °F -2.0 °F 73% 29.96 in 2.5 mi NNW 15.0 mph - 0.00 in Snow Light Snow
1:13 PM 6.1 °F -12.8 °F -2.0 °F 69% 29.96 in 3.0 mi NNW 17.3 mph - 0.00 in Snow Light Snow
1:27 PM 6.1 °F -12.2 °F -2.9 °F 67% 29.96 in 5.0 mi NNW 16.1 mph - 0.00 in Snow Light Snow
1:51 PM 5.0 °F -14.7 °F -2.2 °F 72% 29.95 in 7.0 mi NNW 18.4 mph - 0.00 in   Overcast
1:53 PM 5.0 °F -14.7 °F -2.9 °F 70% 30.21 in 6.0 mi NNW 18.4 mph - 0.00 in   Haze
2:43 PM 6.1 °F -10.2 °F -2.9 °F 67% 29.97 in 10.0 mi NW 12.7 mph - N/A   Overcast
2:53 PM 6.1 °F -10.9 °F -2.9 °F 67% 30.22 in 10.0 mi NW 13.8 mph - N/A   Overcast
3:53 PM 5.0 °F -10.8 °F -2.9 °F 70% 30.24 in 10.0 mi NNW 11.5 mph - N/A   Overcast
4:53 PM 3.9 °F -11.3 °F -5.1 °F 66% 30.27 in 10.0 mi NNW 10.4 mph - N/A   Overcast
5:53 PM 3.9 °F -11.3 °F -6.0 °F 64% 30.29 in 10.0 mi NW 10.4 mph - N/A   Overcast
6:53 PM 3.0 °F -6.4 °F -5.1 °F 69% 30.30 in 10.0 mi Variable 4.6 mph - N/A   Overcast
7:53 PM 3.0 °F -8.0 °F -6.0 °F 66% 30.31 in 6.0 mi NW 5.8 mph - 0.00 in   Haze
8:53 PM 3.0 °F -13.3 °F -6.0 °F 66% 30.30 in 5.0 mi NW 11.5 mph - 0.00 in Snow Light Snow
9:53 PM 1.0 °F -16.6 °F -8.0 °F 66% 30.33 in 10.0 mi NW 12.7 mph - 0.00 in   Mostly Cloudy
10:53 PM 1.0 °F -14.0 °F -8.0 °F 66% 30.32 in 10.0 mi NNW 9.2 mph - 0.00 in   Overcast
11:53 PM 1.0 °F -12.9 °F -7.1 °F 69% 30.33 in 9.0 mi NW 8.1 mph - 0.00 in   Overcast